Location: Peebles
(55.6412°N, 3.1714°W)
Time: 15:36:41
(UTC+01:00)

CENTAUR R/B - Pass Details

Date: 26 September 2021
Orbit: 729 x 1458 km, 63.5° (Epoch: 15 October)

Event Time Altitude Azimuth Distance (km) Brightness Sun altitude
Rises 23:01:52 0° 239° (WSW) 3,523 5.5 -30.6°
Reaches altitude 10° 23:04:12 10° 241° (WSW) 2,672 4.8 -30.8°
Maximum altitude 23:10:32 75° 327° (NNW) 1,122 2.8 -31.3°
Drops below altitude 10° 23:18:14 10° 53° (NE) 3,219 5.2 -31.9°
Sets 23:21:17 0° 56° (NE) 4,289 5.9 -32.1°
